CW8216 Weather Reports


time (UTC)temp
C
wind
direction
speed
KPH
gust
KPH
rain 1hr
cm
rain 24hr
cm
rain mn
cm
humidity
%
barometer
mb
20260505005038 13 138 1.6 4.8 0.00 0.03 0.03 93 1024.6
20260505004553 13 139 1.6 4.8 0.00 0.03 0.03 94 1024.5
20260505004039 13 170 1.6 3.2 0.00 0.03 0.03 94 1024.5
20260505003539 12 170 0.0 6.4 0.00 0.03 0.03 94 1024.6
20260505003051 12 170 1.6 6.4 0.00 0.03 0.03 94 1024.6
20260505002539 12 217 3.2 6.4 0.00 0.03 0.03 95 1024.4
20260505002041 12 129 3.2 6.4 0.00 0.03 0.03 94 1024.4
20260505001601 12 166 3.2 6.4 0.00 0.03 0.03 95 1024.4
20260505001038 12 158 3.2 6.4 0.00 0.03 0.03 95 1024.3
20260505000544 12 173 1.6 4.8 0.00 0.03 0.03 95 1024.3
20260505000109 12 173 1.6 4.8 0.00 0.03 0.03 95 1024.2
20260504235541 12 160 1.6 3.2 0.00 0.03 0.03 95 1024.2
20260504235042 12 162 1.6 3.2 0.00 0.00 0.00 95 1024.2
20260504234551 12 0 0.0 1.6 0.00 0.00 0.00 95 1024.2
20260504234039 12 68 0.0 1.6 0.00 0.00 0.00 95 1024.2
20260504233541 12 0 0.0 1.6 0.00 0.00 0.00 95 1024.2
20260504233107 12 0 0.0 1.6 0.00 0.00 0.00 95 1024.3
20260504232541 12 0 0.0 1.6 0.00 0.00 0.00 95 1024.2
20260504232040 12 0 0.0 1.6 0.00 0.00 0.00 95 1024.2
20260504231555 11 0 0.0 1.6 0.00 0.00 0.00 95 1024.1
20260504231041 11 0 0.0 1.6 0.00 0.00 0.00 95 1024.2
20260504230541 11 0 0.0 1.6 0.00 0.00 0.00 95 1024.1
20260504230052 11 0 0.0 1.6 0.00 0.00 0.00 95 1024.0
20260504225539 11 0 0.0 0.0 0.00 0.00 0.00 95 1024.1
20260504225136 11 0 0.0 1.6 0.00 0.00 0.00 95 1023.8
20260504224550 11 0 0.0 1.6 0.00 0.00 0.00 95 1023.8
20260504224041 11 0 0.0 1.6 0.00 0.00 0.00 95 1023.8
20260504223541 11 0 0.0 1.6 0.00 0.00 0.00 95 1023.8
20260504223100 11 62 0.0 0.0 0.00 0.00 0.00 95 1023.8
20260504222541 11 0 0.0 0.0 0.00 0.00 0.00 95 1023.9
20260504222042 11 0 0.0 0.0 0.00 0.00 0.00 95 1023.7
20260504221549 11 0 0.0 0.0 0.00 0.00 0.00 95 1023.7
20260504221044 10 0 0.0 0.0 0.00 0.00 0.00 95 1023.6
20260504220539 10 0 0.0 0.0 0.00 0.00 0.00 95 1023.7
20260504220054 10 0 0.0 0.0 0.00 0.00 0.00 95 1023.7
20260504215541 10 0 0.0 0.0 0.00 0.00 0.00 95 1023.5
20260504215040 10 0 0.0 0.0 0.00 0.00 0.00 95 1023.4
20260504214552 10 0 0.0 0.0 0.00 0.00 0.00 95 1023.4
20260504214043 10 0 0.0 0.0 0.00 0.00 0.00 95 1023.2
20260504213541 10 0 0.0 0.0 0.00 0.00 0.00 95 1023.2
20260504213056 10 0 0.0 0.0 0.00 0.00 0.00 95 1023.2
20260504212543 10 0 0.0 0.0 0.00 0.00 0.00 95 1023.3
20260504212041 10 0 0.0 0.0 0.00 0.00 0.00 95 1023.2
20260504211552 10 0 0.0 0.0 0.00 0.00 0.00 95 1023.3
20260504211041 10 0 0.0 0.0 0.00 0.00 0.00 95 1023.2
20260504210541 10 0 0.0 0.0 0.00 0.00 0.00 95 1023.2
20260504210051 10 0 0.0 0.0 0.00 0.00 0.00 95 1023.0
20260504205542 10 0 0.0 0.0 0.00 0.00 0.00 95 1023.0
20260504205042 9 0 0.0 0.0 0.00 0.00 0.00 95 1022.8
20260504204550 10 0 0.0 0.0 0.00 0.00 0.00 95 1022.9
20260504204038 10 0 0.0 0.0 0.00 0.00 0.00 95 1022.7
20260504203538 10 0 0.0 0.0 0.00 0.00 0.00 94 1022.9
20260504203108 9 0 0.0 0.0 0.00 0.00 0.00 94 1022.8
20260504202538 10 0 0.0 1.6 0.00 0.00 0.00 95 1022.9
20260504202046 10 0 0.0 1.6 0.00 0.00 0.00 95 1022.8
20260504201556 10 0 0.0 3.2 0.00 0.00 0.00 95 1022.7
20260504201042 10 0 0.0 3.2 0.00 0.00 0.00 95 1022.6
20260504200540 9 0 0.0 3.2 0.00 0.00 0.00 95 1022.5
20260504200049 9 0 0.0 1.6 0.00 0.00 0.00 95 1022.7
20260504195541 9 97 0.0 0.0 0.00 0.00 0.00 95 1022.5
20260504195041 9 98 0.0 0.0 0.00 0.00 0.00 95 1022.4
20260504194552 8 0 0.0 0.0 0.00 0.00 0.00 94 1022.4
20260504194040 8 0 0.0 0.0 0.00 0.00 0.00 94 1022.4
20260504193545 8 0 0.0 0.0 0.00 0.00 0.00 94 1022.3
20260504193048 8 0 0.0 0.0 0.00 0.00 0.00 94 1022.2
20260504192540 8 0 0.0 0.0 0.00 0.00 0.00 94 1022.2
20260504192044 8 0 0.0 1.6 0.00 0.00 0.00 93 1022.1
20260504191557 8 0 0.0 1.6 0.00 0.00 0.00 94 1022.1
20260504191041 8 0 0.0 1.6 0.00 0.00 0.00 94 1022.1
20260504190541 8 0 0.0 1.6 0.00 0.00 0.00 94 1021.9
20260504190048 8 0 0.0 1.6 0.00 0.00 0.00 94 1021.9
20260504185541 8 0 0.0 1.6 0.00 0.00 0.00 94 1022.0
20260504185040 8 0 0.0 0.0 0.00 0.00 0.00 93 1021.9
20260504184551 8 0 0.0 0.0 0.00 0.00 0.00 93 1021.9
20260504184041 8 0 0.0 0.0 0.00 0.00 0.00 93 1021.8
20260504183542 8 0 0.0 0.0 0.00 0.00 0.00 93 1021.8
20260504183053 8 0 0.0 1.6 0.00 0.00 0.00 93 1021.7
20260504182546 9 0 0.0 1.6 0.00 0.00 0.00 93 1021.7
20260504182041 9 0 0.0 3.2 0.00 0.00 0.00 93 1021.7
20260504181554 9 0 0.0 3.2 0.00 0.00 0.00 93 1021.7
20260504181041 9 0 0.0 1.6 0.00 0.00 0.00 92 1021.6
20260504180542 10 0 0.0 1.6 0.00 0.00 0.00 93 1021.6
20260504180051 10 0 0.0 0.0 0.00 0.00 0.00 93 1021.6
20260504175540 10 0 0.0 0.0 0.00 0.00 0.00 93 1021.6
20260504175042 10 0 0.0 1.6 0.00 0.00 0.00 93 1021.7
20260504174611 10 0 0.0 1.6 0.00 0.00 0.00 93 1021.7
20260504174041 10 0 0.0 1.6 0.00 0.00 0.00 93 1021.7
20260504173542 10 0 0.0 0.0 0.00 0.00 0.00 93 1021.7
20260504173052 10 0 0.0 0.0 0.00 0.00 0.00 93 1021.7
20260504172542 10 0 0.0 0.0 0.00 0.00 0.00 93 1021.9
20260504172038 10 0 0.0 0.0 0.00 0.00 0.00 93 1021.8
20260504171557 10 0 0.0 0.0 0.00 0.00 0.00 93 1021.7
20260504171042 10 0 0.0 0.0 0.00 0.00 0.00 93 1021.9
20260504170542 10 0 0.0 0.0 0.00 0.00 0.00 93 1022.0
20260504151038 11 0 0.0 0.0 0.00 0.00 0.00 90 1022.1
20260504150541 11 0 0.0 0.0 0.00 0.00 0.00 90 1022.1
20260504141041 9 0 0.0 1.6 0.00 0.00 0.00 89 1022.2
20260504140542 9 0 0.0 1.6 0.00 0.00 0.00 89 1022.2
20260504130540 9 0 0.0 0.0 0.00 0.00 0.00 85 1022.1
20260504110540 12 0 0.0 0.0 0.00 0.08 0.00 77 1021.2
20260504100540 11 0 0.0 0.0 0.00 0.08 0.00 76 1020.4
20260504081549 15 222 3.2 8.0 0.00 0.08 0.00 63 1018.9
20260504081037 15 221 4.8 9.7 0.00 0.08 0.00 63 1018.8
20260504080540 16 164 3.2 9.7 0.00 0.08 0.00 63 1018.8
20260504050540 17 259 9.7 19.3 0.00 0.08 0.00 59 1017.3
20260504045539 17 328 8.0 19.3 0.00 0.08 0.00 58 1017.4
20260504045039 17 291 9.7 19.3 0.00 0.08 0.00 58 1017.3
20260504044602 17 277 9.7 20.9 0.00 0.08 0.00 57 1017.3
20260504044040 17 349 9.7 22.5 0.00 0.08 0.00 56 1017.3
20260504043539 18 256 11.3 22.5 0.00 0.08 0.00 57 1017.4
20260504043056 17 236 8.0 19.3 0.00 0.08 0.00 58 1017.3
20260504042539 17 251 8.0 19.3 0.00 0.08 0.00 60 1017.5
20260504042041 16 244 9.7 17.7 0.00 0.08 0.00 61 1017.4
20260504041554 17 269 6.4 14.5 0.00 0.08 0.00 59 1017.5
20260504041041 17 229 6.4 16.1 0.00 0.08 0.00 60 1017.5
20260504040540 17 339 9.7 16.1 0.00 0.08 0.00 58 1017.5
20260504040106 17 333 8.0 16.1 0.00 0.08 0.00 58 1017.5
20260504035540 17 227 6.4 16.1 0.00 0.08 0.00 60 1017.6
20260504035039 17 240 4.8 17.7 0.00 0.08 0.00 58 1017.6
20260504034611 17 259 8.0 17.7 0.00 0.08 0.00 58 1017.6
20260504034040 17 279 6.4 14.5 0.00 0.08 0.00 58 1017.6
20260504033543 17 316 8.0 14.5 0.00 0.08 0.00 60 1017.6
20260504033047 17 348 6.4 17.7 0.00 0.08 0.00 60 1017.6
20260504032540 17 339 8.0 17.7 0.00 0.08 0.00 61 1017.6
20260504032044 16 217 9.7 17.7 0.00 0.08 0.00 63 1017.7
20260504031548 16 258 6.4 11.3 0.00 0.08 0.00 63 1017.8
20260504031036 16 241 6.4 12.9 0.00 0.08 0.00 61 1017.8
20260504030538 16 211 8.0 19.3 0.00 0.08 0.00 62 1017.9
20260504030118 16 233 8.0 19.3 0.00 0.08 0.00 59 1018.2
20260504025540 17 311 11.3 19.3 0.00 0.08 0.00 60 1018.2
20260504025038 17 283 8.0 17.7 0.00 0.08 0.00 61 1018.2
20260504024549 17 217 8.0 17.7 0.00 0.08 0.00 61 1018.2
20260504024040 17 233 9.7 17.7 0.00 0.08 0.00 61 1018.2
20260504023539 16 260 8.0 17.7 0.00 0.08 0.00 62 1018.4
20260504023050 16 248 8.0 17.7 0.00 0.08 0.00 63 1018.4
20260504022540 16 262 6.4 17.7 0.00 0.08 0.00 64 1018.4
20260504022039 16 333 9.7 17.7 0.00 0.08 0.00 64 1018.4
20260504021553 16 238 8.0 17.7 0.00 0.08 0.00 65 1018.5
20260504021039 16 271 9.7 14.5 0.00 0.08 0.00 65 1018.5
20260504020543 15 240 8.0 16.1 0.00 0.08 0.00 68 1018.5
20260504020052 15 253 8.0 19.3 0.00 0.08 0.00 69 1018.5
20260504015540 15 243 9.7 19.3 0.00 0.08 0.00 70 1018.5
20260504015037 15 227 6.4 16.1 0.00 0.08 0.00 70 1018.5
20260504014555 15 231 8.0 17.7 0.00 0.08 0.00 70 1018.5
20260504014036 15 246 8.0 17.7 0.00 0.08 0.00 71 1018.6
20260504013541 15 236 8.0 16.1 0.00 0.08 0.00 70 1018.7
20260504013052 15 236 6.4 14.5 0.00 0.08 0.00 70 1018.6
20260504012540 15 275 6.4 14.5 0.00 0.08 0.00 71 1018.6
20260504012040 15 283 6.4 12.9 0.00 0.08 0.00 71 1018.7
20260504011550 14 283 6.4 12.9 0.00 0.08 0.00 72 1018.7
20260504011039 14 223 8.0 12.9 0.00 0.08 0.00 72 1018.6
20260504010539 14 252 6.4 11.3 0.00 0.08 0.00 72 1018.7
20260504010051 13 260 4.8 11.3 0.00 0.08 0.00 74 1018.6
20260504005616 13 255 4.8 11.3 0.00 0.08 0.00 75 1018.6